FYT6421 LIRF-EDDM

Flight info

Callsign FYT6421
Flight time 1h 10m
Altitude 34000
Route SOSIV5AXSOVAN1E/25 SOVAN L995 AMTEL/N0442F340 DCT BIKTU DCT SUMIR DCT SOTOV T101 BETOS
Aircraft A321/M-SDE1FGHIJ1RWXY/S

Departure

Time 2026-05-05 18:07
Airport Rome–Fiumicino Leonardo da Vinci International Airport (LIRF)

Arrival

Time 2026-05-05 19:18
Airport Munich Airport (EDDM)
Time Latitude Longitude Altitude Speed Heading
2026-05-05 17:15 41.80069 12.26214 16 ft 0 kts 205°
2026-05-05 17:59 41.80080 12.26221 16 ft 2 kts 205°
2026-05-05 18:00 41.80094 12.26229 16 ft 2 kts 205°
2026-05-05 18:00 41.80108 12.26238 16 ft 2 kts 205°
2026-05-05 18:00 41.80121 12.26248 16 ft 2 kts 235°
2026-05-05 18:00 41.80124 12.26265 16 ft 1 kts 290°
2026-05-05 18:01 41.80123 12.26269 16 ft 1 kts 304°
2026-05-05 18:01 41.80130 12.26240 16 ft 3 kts 295°
2026-05-05 18:01 41.80142 12.26209 16 ft 2 kts 295°
2026-05-05 18:01 41.80144 12.26201 16 ft 0 kts 295°
2026-05-05 18:03 41.80145 12.26201 16 ft 0 kts 295°
2026-05-05 18:03 41.80151 12.26182 16 ft 4 kts 295°
2026-05-05 18:03 41.80176 12.26114 16 ft 12 kts 296°
2026-05-05 18:04 41.80246 12.26062 16 ft 13 kts 14°
2026-05-05 18:04 41.80335 12.26109 16 ft 14 kts 25°
2026-05-05 18:04 41.80428 12.26164 16 ft 14 kts 22°
2026-05-05 18:04 41.80515 12.26236 16 ft 15 kts 52°
2026-05-05 18:05 41.80561 12.26368 15 ft 15 kts 69°
2026-05-05 18:05 41.80600 12.26511 15 ft 16 kts 69°
2026-05-05 18:05 41.80642 12.26659 14 ft 17 kts 69°
2026-05-05 18:05 41.80684 12.26811 14 ft 17 kts 70°
2026-05-05 18:06 41.80726 12.26971 13 ft 18 kts 65°
2026-05-05 18:06 41.80750 12.27016 13 ft 18 kts 40°
2026-05-05 18:06 41.80943 12.26876 13 ft 30 kts 255°
2026-05-05 18:06 41.80803 12.26371 15 ft 94 kts 249°
2026-05-05 18:07 41.80497 12.25258 16 ft 158 kts 247°
2026-05-05 18:07 41.80113 12.23709 431 ft 178 kts 250°
2026-05-05 18:07 41.79765 12.22187 1253 ft 172 kts 247°
2026-05-05 18:07 41.79347 12.20734 2052 ft 167 kts 242°
2026-05-05 18:08 41.79057 12.19240 2670 ft 175 kts 272°
2026-05-05 18:08 41.79569 12.17765 3272 ft 183 kts 304°
2026-05-05 18:08 41.80445 12.16444 3735 ft 198 kts 310°
2026-05-05 18:08 41.81407 12.15053 4161 ft 214 kts 309°
2026-05-05 18:09 41.82404 12.13520 4745 ft 221 kts 307°
2026-05-05 18:09 41.83375 12.11949 5462 ft 222 kts 306°
2026-05-05 18:09 41.84475 12.10502 6164 ft 226 kts 324°
2026-05-05 18:09 41.85947 12.09671 6689 ft 239 kts 341°
2026-05-05 18:10 41.87614 12.09056 6996 ft 261 kts 343°
2026-05-05 18:10 41.89429 12.08432 7540 ft 273 kts 343°
2026-05-05 18:10 41.91255 12.07794 8338 ft 275 kts 343°
2026-05-05 18:10 41.93100 12.07129 9135 ft 276 kts 342°
2026-05-05 18:11 41.94982 12.06492 9698 ft 288 kts 345°
2026-05-05 18:11 41.96963 12.06061 10374 ft 294 kts 351°
2026-05-05 18:11 41.99060 12.05810 10815 ft 310 kts 353°
2026-05-05 18:11 42.01282 12.05594 11167 ft 327 kts 353°
2026-05-05 18:12 42.03564 12.05378 11665 ft 337 kts 353°
2026-05-05 18:12 42.05917 12.05156 12375 ft 341 kts 353°
2026-05-05 18:12 42.08275 12.04932 13056 ft 344 kts 353°
2026-05-05 18:12 42.10694 12.04700 13749 ft 347 kts 352°
2026-05-05 18:13 42.13078 12.04467 14402 ft 350 kts 352°
2026-05-05 18:13 42.15543 12.04225 15003 ft 355 kts 352°
2026-05-05 18:13 42.18017 12.03946 15581 ft 358 kts 350°
2026-05-05 18:13 42.20484 12.03483 16175 ft 361 kts 348°
2026-05-05 18:14 42.22951 12.02937 16750 ft 364 kts 347°
2026-05-05 18:14 42.25448 12.02366 17307 ft 368 kts 347°
2026-05-05 18:14 42.27987 12.01786 17864 ft 372 kts 347°
2026-05-05 18:14 42.30555 12.01202 18413 ft 375 kts 347°
2026-05-05 18:15 42.33147 12.00615 18939 ft 379 kts 347°
2026-05-05 18:15 42.35716 12.00037 19451 ft 382 kts 347°
2026-05-05 18:15 42.38371 11.99440 19977 ft 385 kts 347°
2026-05-05 18:15 42.41047 11.98841 20501 ft 388 kts 347°
2026-05-05 18:16 42.43743 11.98235 21009 ft 392 kts 347°
2026-05-05 18:16 42.46443 11.97627 21497 ft 395 kts 347°
2026-05-05 18:16 42.49191 11.97008 22001 ft 398 kts 347°
2026-05-05 18:16 42.51958 11.96379 22478 ft 401 kts 347°
2026-05-05 18:17 42.54700 11.95757 22943 ft 404 kts 347°
2026-05-05 18:17 42.57462 11.95132 23404 ft 407 kts 347°
2026-05-05 18:17 42.60277 11.94496 23865 ft 410 kts 347°
2026-05-05 18:17 42.63093 11.93858 24335 ft 412 kts 346°
2026-05-05 18:18 42.65942 11.93213 24807 ft 414 kts 346°
2026-05-05 18:18 42.68760 11.92570 25261 ft 416 kts 346°
2026-05-05 18:18 42.71626 11.91915 25710 ft 418 kts 345°
2026-05-05 18:18 42.74554 11.91245 26172 ft 420 kts 345°
2026-05-05 18:19 42.77461 11.90580 26616 ft 422 kts 345°
2026-05-05 18:19 42.80385 11.89874 27011 ft 422 kts 342°
2026-05-05 18:19 42.83225 11.88831 27400 ft 420 kts 336°
2026-05-05 18:19 42.85902 11.87403 27771 ft 417 kts 329°
2026-05-05 18:20 42.88483 11.85637 28181 ft 416 kts 326°
2026-05-05 18:20 42.90194 11.84392 28445 ft 416 kts 326°
2026-05-05 18:20 42.93579 11.81891 28978 ft 417 kts 325°
2026-05-05 18:20 42.96152 11.79985 29329 ft 419 kts 325°
2026-05-05 18:21 42.98714 11.78096 29686 ft 420 kts 325°
2026-05-05 18:21 43.01246 11.76233 30181 ft 417 kts 324°
2026-05-05 18:21 43.03811 11.74344 30703 ft 415 kts 325°
2026-05-05 18:21 43.06335 11.72485 31118 ft 415 kts 324°
2026-05-05 18:22 43.08900 11.70595 31509 ft 415 kts 324°
2026-05-05 18:22 43.11407 11.68747 31914 ft 415 kts 324°
2026-05-05 18:22 43.13959 11.66867 32354 ft 414 kts 324°
2026-05-05 18:22 43.16566 11.65105 32732 ft 417 kts 328°
2026-05-05 18:23 43.19239 11.63598 33040 ft 423 kts 332°
2026-05-05 18:23 43.22031 11.62317 33307 ft 429 kts 336°
2026-05-05 18:23 43.24962 11.61280 33615 ft 434 kts 340°
2026-05-05 18:23 43.27917 11.60539 33901 ft 439 kts 344°
2026-05-05 18:24 43.30984 11.60072 33978 ft 445 kts 347°
2026-05-05 18:24 43.37145 11.59519 33982 ft 446 kts 349°
2026-05-05 18:25 43.43350 11.59004 33982 ft 445 kts 348°
2026-05-05 18:25 43.49552 11.58470 33985 ft 444 kts 348°
2026-05-05 18:26 43.55691 11.57930 33982 ft 445 kts 348°
2026-05-05 18:26 43.61909 11.57377 33980 ft 446 kts 348°
2026-05-05 18:27 43.68071 11.56831 33978 ft 445 kts 348°
2026-05-05 18:27 43.74243 11.56279 33976 ft 445 kts 348°
2026-05-05 18:28 43.83500 11.55452 33978 ft 445 kts 348°
2026-05-05 18:28 43.89686 11.54898 33975 ft 445 kts 348°
2026-05-05 18:29 43.95853 11.54343 33976 ft 446 kts 348°
2026-05-05 18:29 44.02050 11.53801 33975 ft 446 kts 348°
2026-05-05 18:30 44.08277 11.53330 33973 ft 446 kts 348°
2026-05-05 18:30 44.14460 11.52868 33965 ft 447 kts 348°
2026-05-05 18:31 44.20690 11.52392 33961 ft 447 kts 348°
2026-05-05 18:31 44.26899 11.51918 33951 ft 448 kts 348°
2026-05-05 18:32 44.33108 11.51439 33947 ft 447 kts 348°
2026-05-05 18:32 44.39304 11.50961 33943 ft 446 kts 348°
2026-05-05 18:33 44.45514 11.50481 33941 ft 447 kts 348°
2026-05-05 18:33 44.51739 11.49995 33941 ft 447 kts 348°
2026-05-05 18:34 44.57928 11.49511 33939 ft 446 kts 348°
2026-05-05 18:34 44.64166 11.49018 33937 ft 446 kts 348°
2026-05-05 18:35 44.70353 11.48537 33932 ft 447 kts 348°
2026-05-05 18:35 44.76551 11.48054 33936 ft 448 kts 348°
2026-05-05 18:36 44.82753 11.47563 33932 ft 448 kts 348°
2026-05-05 18:36 44.89007 11.47069 33928 ft 448 kts 348°
2026-05-05 18:37 44.95224 11.46577 33930 ft 449 kts 348°
2026-05-05 18:37 45.01443 11.46085 33929 ft 449 kts 348°
2026-05-05 18:38 45.07674 11.45595 33927 ft 449 kts 349°
2026-05-05 18:38 45.13864 11.45104 33927 ft 448 kts 349°
2026-05-05 18:39 45.20108 11.44603 33928 ft 448 kts 349°
2026-05-05 18:39 45.26350 11.44107 33931 ft 450 kts 349°
2026-05-05 18:40 45.32565 11.43609 33939 ft 450 kts 349°
2026-05-05 18:40 45.38843 11.43105 33931 ft 453 kts 349°
2026-05-05 18:41 45.45108 11.42599 33937 ft 452 kts 350°
2026-05-05 18:41 45.51371 11.42091 33939 ft 452 kts 350°
2026-05-05 18:42 45.57623 11.41590 33936 ft 453 kts 349°
2026-05-05 18:42 45.63871 11.41081 33940 ft 451 kts 350°
2026-05-05 18:43 45.70157 11.40573 33947 ft 451 kts 350°
2026-05-05 18:43 45.76377 11.40068 33952 ft 450 kts 350°
2026-05-05 18:44 45.82625 11.39561 33953 ft 451 kts 351°
2026-05-05 18:44 45.88880 11.39049 33953 ft 452 kts 351°
2026-05-05 18:45 45.95151 11.38538 33961 ft 453 kts 351°
2026-05-05 18:45 46.01437 11.38019 33956 ft 453 kts 351°
2026-05-05 18:46 46.07750 11.37500 33958 ft 453 kts 351°
2026-05-05 18:46 46.13993 11.36988 33960 ft 454 kts 351°
2026-05-05 18:47 46.20296 11.36464 33962 ft 454 kts 351°
2026-05-05 18:47 46.26580 11.35822 33964 ft 451 kts 348°
2026-05-05 18:48 46.32777 11.34571 33962 ft 451 kts 345°
2026-05-05 18:48 46.38956 11.33215 33958 ft 451 kts 345°
2026-05-05 18:49 46.45158 11.31861 33947 ft 452 kts 345°
2026-05-05 18:49 46.51369 11.30514 33936 ft 452 kts 346°
2026-05-05 18:50 46.57586 11.29159 33944 ft 452 kts 346°
2026-05-05 18:50 46.63781 11.27810 33957 ft 453 kts 346°
2026-05-05 18:51 46.70022 11.26444 33971 ft 454 kts 346°
2026-05-05 18:51 46.76337 11.25587 33803 ft 462 kts 356°
2026-05-05 18:52 46.79532 11.25774 33548 ft 461 kts 358°
2026-05-05 18:52 46.82718 11.26043 33288 ft 459 kts 359°
2026-05-05 18:52 46.85903 11.26315 33027 ft 457 kts 358°
2026-05-05 18:52 46.89047 11.26569 32770 ft 454 kts 358°
2026-05-05 18:53 46.92179 11.26804 32513 ft 453 kts 358°
2026-05-05 18:53 46.95317 11.27027 32255 ft 453 kts 358°
2026-05-05 18:53 46.98484 11.27247 31916 ft 454 kts 358°
2026-05-05 18:53 47.01615 11.27465 31436 ft 456 kts 358°
2026-05-05 18:54 47.04773 11.27678 30822 ft 456 kts 358°
2026-05-05 18:54 47.07961 11.27893 30135 ft 457 kts 359°
2026-05-05 18:54 47.11127 11.28109 29424 ft 457 kts 359°
2026-05-05 18:54 47.14259 11.28323 28727 ft 457 kts 359°
2026-05-05 18:55 47.17451 11.28538 28213 ft 451 kts 359°
2026-05-05 18:55 47.20521 11.28749 27714 ft 446 kts 359°
2026-05-05 18:55 47.23618 11.28966 27214 ft 441 kts 360°
2026-05-05 18:55 47.26649 11.29174 26721 ft 436 kts 359°
2026-05-05 18:56 47.29670 11.29381 26230 ft 431 kts 360°
2026-05-05 18:56 47.32630 11.29584 25745 ft 427 kts
2026-05-05 18:56 47.35570 11.29785 25267 ft 423 kts
2026-05-05 18:56 47.38489 11.29986 24786 ft 419 kts
2026-05-05 18:57 47.41393 11.30186 24294 ft 423 kts
2026-05-05 18:57 47.44334 11.30387 23712 ft 423 kts
2026-05-05 18:57 47.47254 11.30589 23148 ft 420 kts
2026-05-05 18:57 47.50177 11.30792 22584 ft 416 kts
2026-05-05 18:58 47.53034 11.30993 22006 ft 413 kts
2026-05-05 18:58 47.55888 11.31194 21447 ft 410 kts
2026-05-05 18:58 47.58705 11.31388 20897 ft 407 kts
2026-05-05 18:58 47.61544 11.31586 20331 ft 404 kts
2026-05-05 18:59 47.64337 11.31782 19766 ft 401 kts
2026-05-05 18:59 47.67072 11.31972 19227 ft 399 kts
2026-05-05 18:59 47.69826 11.32162 18668 ft 396 kts
2026-05-05 18:59 47.72580 11.32352 18135 ft 394 kts
2026-05-05 19:00 47.75284 11.32540 17565 ft 391 kts
2026-05-05 19:00 47.78014 11.32730 17014 ft 389 kts
2026-05-05 19:00 47.80707 11.32948 16474 ft 388 kts
2026-05-05 19:00 47.83251 11.34030 15908 ft 390 kts 25°
2026-05-05 19:01 47.85540 11.36186 15406 ft 388 kts 34°
2026-05-05 19:01 47.87699 11.38527 14975 ft 383 kts 35°
2026-05-05 19:01 47.89842 11.40828 14876 ft 371 kts 34°
2026-05-05 19:01 47.91947 11.43008 14876 ft 371 kts 33°
2026-05-05 19:02 47.94093 11.45166 14857 ft 371 kts 33°
2026-05-05 19:02 47.96243 11.47288 14845 ft 371 kts 32°
2026-05-05 19:02 47.98400 11.49395 14859 ft 371 kts 32°
2026-05-05 19:02 48.00563 11.51497 14625 ft 369 kts 31°
2026-05-05 19:03 48.02714 11.53582 14370 ft 368 kts 32°
2026-05-05 19:03 48.04853 11.55653 14115 ft 366 kts 32°
2026-05-05 19:03 48.06970 11.57707 13881 ft 364 kts 32°
2026-05-05 19:03 48.09116 11.59789 13634 ft 364 kts 31°
2026-05-05 19:04 48.11230 11.61831 13311 ft 363 kts 31°
2026-05-05 19:04 48.13317 11.63849 12918 ft 360 kts 31°
2026-05-05 19:04 48.15411 11.65883 12521 ft 358 kts 32°
2026-05-05 19:04 48.17511 11.67927 12120 ft 356 kts 32°
2026-05-05 19:05 48.19572 11.69937 11717 ft 354 kts 32°
2026-05-05 19:05 48.21625 11.71942 11322 ft 352 kts 32°
2026-05-05 19:05 48.23640 11.73986 10898 ft 350 kts 38°
2026-05-05 19:05 48.25175 11.76744 10489 ft 348 kts 63°
2026-05-05 19:06 48.25907 11.80111 10086 ft 330 kts 83°
2026-05-05 19:06 48.26153 11.83433 9682 ft 312 kts 87°
2026-05-05 19:06 48.26340 11.86594 9291 ft 303 kts 87°
2026-05-05 19:06 48.26528 11.89749 8873 ft 303 kts 86°
2026-05-05 19:07 48.26733 11.92891 8356 ft 306 kts 85°
2026-05-05 19:07 48.26878 11.94983 7996 ft 305 kts 84°
2026-05-05 19:07 48.27174 11.99109 7265 ft 295 kts 83°
2026-05-05 19:07 48.27398 12.02139 6718 ft 288 kts 83°
2026-05-05 19:08 48.27616 12.05092 6172 ft 282 kts 82°
2026-05-05 19:08 48.27831 12.07971 5625 ft 277 kts 82°
2026-05-05 19:08 48.28043 12.10802 5076 ft 273 kts 82°
2026-05-05 19:08 48.28251 12.13583 4531 ft 269 kts 82°
2026-05-05 19:09 48.28453 12.16332 4090 ft 260 kts 81°
2026-05-05 19:09 48.28648 12.18983 3983 ft 253 kts 81°
2026-05-05 19:09 48.28842 12.21619 3987 ft 255 kts 81°
2026-05-05 19:09 48.29057 12.24231 3977 ft 254 kts 75°
2026-05-05 19:10 48.29794 12.26575 3958 ft 243 kts 42°
2026-05-05 19:10 48.31148 12.27933 3971 ft 232 kts 11°
2026-05-05 19:10 48.32706 12.28257 3989 ft 227 kts 357°
2026-05-05 19:10 48.34295 12.28291 3980 ft 225 kts 351°
2026-05-05 19:11 48.35726 12.27604 3962 ft 216 kts 320°
2026-05-05 19:11 48.36675 12.25903 3986 ft 213 kts 298°
2026-05-05 19:11 48.37134 12.23794 3980 ft 213 kts 279°
2026-05-05 19:11 48.37275 12.21578 3977 ft 214 kts 275°
2026-05-05 19:12 48.37358 12.19393 3967 ft 205 kts 275°
2026-05-05 19:12 48.37458 12.17264 4029 ft 203 kts 276°
2026-05-05 19:12 48.37576 12.15153 4051 ft 204 kts 276°
2026-05-05 19:12 48.37697 12.13029 3998 ft 203 kts 276°
2026-05-05 19:13 48.37818 12.10931 3982 ft 203 kts 276°
2026-05-05 19:13 48.37941 12.08791 3977 ft 203 kts 276°
2026-05-05 19:13 48.38138 12.06729 3970 ft 196 kts 279°
2026-05-05 19:13 48.38240 12.04723 3964 ft 192 kts 273°
2026-05-05 19:14 48.38209 12.02726 3959 ft 181 kts 270°
2026-05-05 19:14 48.38134 12.00898 3929 ft 173 kts 268°
2026-05-05 19:14 48.38024 11.99154 3703 ft 164 kts 267°
2026-05-05 19:14 48.37900 11.97518 3456 ft 151 kts 267°
2026-05-05 19:15 48.37779 11.95971 3252 ft 149 kts 267°
2026-05-05 19:15 48.37655 11.94416 3053 ft 149 kts 266°
2026-05-05 19:15 48.37532 11.92871 2865 ft 148 kts 266°
2026-05-05 19:15 48.37412 11.91377 2657 ft 140 kts 266°
2026-05-05 19:16 48.37297 11.89934 2485 ft 138 kts 266°
2026-05-05 19:16 48.37186 11.88512 2309 ft 138 kts 265°
2026-05-05 19:16 48.37074 11.87082 2129 ft 138 kts 265°
2026-05-05 19:16 48.36962 11.85658 1948 ft 137 kts 264°
2026-05-05 19:17 48.36850 11.84227 1764 ft 137 kts 264°
2026-05-05 19:17 48.36742 11.82819 1583 ft 136 kts 264°
2026-05-05 19:17 48.36632 11.81407 1457 ft 131 kts 262°
2026-05-05 19:17 48.36546 11.80266 1461 ft 85 kts 263°
2026-05-05 19:18 48.36496 11.79639 1464 ft 44 kts 263°
2026-05-05 19:18 48.36463 11.79205 1467 ft 39 kts 262°
2026-05-05 19:18 48.36424 11.78985 1468 ft 17 kts 248°
2026-05-05 19:18 48.36365 11.78828 1469 ft 17 kts 234°
2026-05-05 19:19 48.36295 11.78689 1470 ft 16 kts 232°
2026-05-05 19:19 48.36248 11.78602 1471 ft 8 kts 231°
2026-05-05 19:19 48.36214 11.78535 1471 ft 8 kts 233°
2026-05-05 19:19 48.36182 11.78462 1472 ft 8 kts 236°
2026-05-05 19:20 48.36147 11.78383 1472 ft 9 kts 237°
2026-05-05 19:20 48.36125 11.78288 1473 ft 10 kts 261°
2026-05-05 19:20 48.36115 11.78177 1473 ft 11 kts 263°
2026-05-05 19:20 48.36105 11.78059 1473 ft 11 kts 264°
2026-05-05 19:21 48.36094 11.77913 1473 ft 16 kts 263°
2026-05-05 19:21 48.36077 11.77743 1474 ft 16 kts 253°
2026-05-05 19:21 48.35990 11.77670 1475 ft 15 kts 175°
2026-05-05 19:21 48.35886 11.77689 1476 ft 10 kts 173°
2026-05-05 19:22 48.35862 11.77693 1476 ft 0 kts 173°
2026-05-05 19:22 48.35862 11.77694 1476 ft 0 kts 173°
2026-05-05 19:23 48.35861 11.77694 1476 ft 0 kts 173°
2026-05-05 19:23 48.35857 11.77694 1476 ft 2 kts 173°
2026-05-05 19:23 48.35822 11.77700 1476 ft 8 kts 174°
2026-05-05 19:24 48.35747 11.77699 1477 ft 13 kts 188°
2026-05-05 19:24 48.35652 11.77702 1478 ft 13 kts 173°
2026-05-05 19:24 48.35556 11.77720 1478 ft 13 kts 173°
2026-05-05 19:24 48.35473 11.77734 1479 ft 6 kts 174°
2026-05-05 19:25 48.35445 11.77728 1479 ft 2 kts 220°
2026-05-05 19:25 48.35445 11.77705 1479 ft 3 kts 309°
2026-05-05 19:25 48.35457 11.77669 1479 ft 4 kts 279°
2026-05-05 19:25 48.35457 11.77663 1479 ft 0 kts 272°